#timestamp,LO_Frequency,Hit,StdDev 
1607076015.8,286046998.9,N
1607076035.7,286046996.7,Y
1607076055.5,286046999.3,P
1607076075.3,286046998.7,P
1607076095.2,286047000.8,N
1607076115.9,286047000.7,N
1607076135.7,286047001.1,N
1607076155.6,286046997.0,Y
1607076175.4,286046997.1,P
1607076195.2,286046997.4,N
1607076215.1,286046997.6,N
1607076216.0,286046997.6,N
1607076235.8,286046997.7,N
1607076255.6,286046997.7,N
1607076275.5,286046999.5,N
1607076295.3,286046999.0,N
1607076315.1,286046998.5,N
1607076335.9,286047001.2,N
1607076355.7,286047000.5,N
1607076375.5,286046998.1,N
1607076395.4,286046996.5,N
1607076415.2,286046996.9,N
1607076435.0,286046998.6,N
1607076435.9,286046998.6,N
1607076455.8,286047000.6,N
1607076475.6,286047000.9,N
1607076495.4,286047000.5,N
1607076515.3,286047000.9,N
1607076535.1,286046998.8,N
1607076555.8,286046999.2,N
1607076575.7,286046997.7,N
1607076595.5,286046996.8,N
1607076615.3,286046996.5,N
1607076635.2,286046997.0,N
1607076655.9,286046999.4,N
1607076675.7,286046999.2,N
1607076695.6,286046999.6,N
1607076715.4,286046998.7,N
1607076735.2,286046998.9,N
1607076755.1,286046999.0,N
1607076756.0,286046999.0,N
1607076775.8,286046999.5,N
1607076795.6,286046995.0,Y
1607076815.5,286046999.1,P
1607076835.3,286046996.6,P
1607076855.1,286046996.9,N
1607076875.9,286046997.8,N
1607076895.7,286046995.6,Y
1607076915.5,286046999.0,P
1607076935.4,286046998.6,N
1607076955.2,286046998.6,N
1607076975.0,286046998.5,Y
1607076975.9,286046998.5,P
1607076995.8,286047002.6,P
1607077015.6,286047002.6,N
1607077035.4,286047001.9,N
1607077055.3,286047002.5,N
1607077075.1,286047001.3,N
1607077095.8,286047001.6,N
1607077115.7,286047001.4,N
1607077135.5,286047002.3,N
1607077155.3,286047002.7,N
1607077175.2,286046999.7,N
1607077195.0,286046998.4,N
1607077195.9,286046998.4,N
1607077215.7,286047001.1,N
1607077235.6,286046996.5,N
1607077255.4,286046998.3,N
1607077275.2,286047000.6,N
1607077295.1,286047001.0,N
1607077296.0,286047001.0,N
1607077315.8,286047000.1,N
1607077335.6,286047000.4,N
1607077355.5,286047000.1,N
1607077375.3,286047000.5,N
1607077395.1,286046998.3,N
1607077415.9,286046996.8,N
1607077435.7,286046998.4,N
1607077455.5,286047000.8,N
1607077475.4,286047000.3,N
1607077495.2,286047000.7,N
1607077515.0,286047000.7,N
1607077515.9,286047000.7,N
1607077535.8,286046998.5,N
1607077555.6,286047000.4,N
1607077575.4,286047000.2,N
1607077595.3,286046998.2,N
1607077615.1,286047000.8,N
1607077635.8,286047001.1,N
1607077655.7,286046998.1,N
1607077675.5,286047001.1,N
1607077695.3,286047001.0,N
1607077715.2,286047000.9,N
1607077735.0,286047000.5,N
1607077735.9,286047000.5,N
1607077755.7,286047001.0,N
1607077775.6,286047001.2,N
1607077795.4,286046999.0,N
1607077815.2,286046996.7,N
1607077835.1,286046998.9,N
1607077836.0,286046998.9,N
1607077855.8,286046997.0,N
1607077875.6,286046997.6,N
1607077895.5,286046997.5,N
1607077915.3,286046996.8,N
1607077935.1,286046996.7,N
1607077955.9,286046999.6,N
1607077975.7,286046996.7,N
1607077995.5,286046999.3,N
1607078015.4,286046997.1,N
1607078035.2,286046999.6,N
1607078055.0,286046998.7,N
1607078055.9,286046998.7,N
1607078075.8,286047001.1,N
1607078095.6,286047000.7,N
1607078115.4,286047001.1,N
1607078135.3,286046998.5,N
1607078155.1,286046998.7,N
1607078175.8,286046999.0,N
1607078195.7,286046998.5,N
1607078215.5,286047000.3,N
1607078235.3,286047000.1,N
1607078255.2,286047000.4,N
1607078275.9,286046998.3,N
1607078295.7,286046999.1,N
1607078315.6,286046999.1,N
1607078335.4,286046999.6,N
1607078355.2,286046997.1,N
1607078375.1,286046997.6,N
1607078376.0,286046997.6,N
1607078395.8,286046995.1,Y
1607078415.6,286046997.4,P
1607078435.5,286046995.4,P
1607078455.3,286046995.5,P
1607078475.1,286046996.1,N
1607078495.9,286046993.8,Y
1607078515.7,286046996.6,P
1607078535.5,286046996.9,P
1607078555.4,286046997.1,P
1607078575.2,286046997.6,Y
1607078595.0,286046999.9,P
1607078595.9,286046999.9,N
1607078615.8,286047000.1,N
1607078635.6,286047002.5,N
1607078655.4,286047004.3,N
1607078675.3,286047003.6,N
1607078695.1,286047001.7,N
1607078715.8,286047004.2,N
1607078735.7,286047004.4,N
1607078755.5,286047002.2,N
1607078775.3,286047001.6,N
1607078795.2,286047004.4,N
1607078815.9,286047001.7,N
1607078835.7,286047001.3,N
1607078855.6,286047004.3,N
1607078875.4,286047001.4,N
1607078925.3,286047003.2,E
1607078935.2,286047002.2,N
1607078955.0,286046999.8,P
1607078955.9,286046999.8,N
1607078975.7,286047002.4,N
1607078995.6,286047000.1,N
1607079015.4,286047000.3,N
1607079035.2,286047002.8,N
1607079055.1,286047002.0,N
1607079056.0,286047002.0,N
1607079075.8,286047000.5,N
1607079095.7,286047002.8,N
1607079115.5,286047000.3,N
1607079135.3,286047000.3,N
1607079155.1,286047002.4,N
1607079175.9,286047000.0,N
1607079195.7,286047002.8,N
1607079215.5,286047001.0,N
1607079235.4,286047002.5,N
1607079255.2,286047001.8,N
1607079275.0,286047004.3,Y
1607079276.0,286047004.3,P
1607079295.8,286047002.7,N
1607079315.6,286047002.7,N
1607079335.5,286047000.4,N
1607079355.3,286047000.7,N
1607079375.1,286047001.1,N
1607079395.9,286047000.6,N
1607079415.7,286047002.5,N
1607079435.5,286047002.4,N
1607079455.3,286047002.8,N
1607079475.2,286047002.7,N
1607079495.0,286046999.7,N
1607079495.9,286046999.7,N
1607079515.8,286047000.3,N
1607079535.6,286047001.2,N
1607079555.4,286047000.8,N
1607079575.2,286046998.3,N
1607079595.1,286047000.1,N
1607079596.0,286047000.1,N
